SIA8874 VTBU-WSSS

Flight info

Callsign SIA8874
Flight time 1h 41m
Altitude 41000
Route BUT Y11 PIDEL M904 UPRON Q803 ELALO ELALO1B
Aircraft A359/H-SDE1E2E3GHIJ1J2J3J5M1P2RWXYZ/LB1D1

Departure

Time 2026-05-06 07:40
Airport U-Tapao–Rayong–Pattaya International Airport (VTBU)

Arrival

Time 2026-05-06 09:21
Airport Singapore Changi Airport (WSSS)
Time Latitude Longitude Altitude Speed Heading
2026-05-06 07:20 12.67423 100.99906 50 ft 0 kts 274°
2026-05-06 07:28 12.67420 100.99947 44 ft 3 kts 275°
2026-05-06 07:29 12.67416 100.99967 45 ft 4 kts 312°
2026-05-06 07:29 12.67400 100.99979 46 ft 4 kts 351°
2026-05-06 07:29 12.67373 100.99980 44 ft 4 kts
2026-05-06 07:29 12.67367 100.99980 46 ft 4 kts
2026-05-06 07:32 12.67386 100.99981 44 ft 8 kts
2026-05-06 07:32 12.67459 100.99988 50 ft 13 kts
2026-05-06 07:33 12.67564 100.99997 52 ft 17 kts
2026-05-06 07:33 12.67645 101.00003 52 ft 4 kts
2026-05-06 07:33 12.67687 101.00008 52 ft 8 kts 12°
2026-05-06 07:33 12.67715 101.00054 52 ft 9 kts 84°
2026-05-06 07:34 12.67712 101.00134 52 ft 13 kts 94°
2026-05-06 07:34 12.67706 101.00221 52 ft 7 kts 89°
2026-05-06 07:34 12.67736 101.00255 52 ft 8 kts 24°
2026-05-06 07:34 12.67808 101.00264 52 ft 13 kts
2026-05-06 07:35 12.67911 101.00272 52 ft 17 kts
2026-05-06 07:35 12.68043 101.00281 52 ft 21 kts
2026-05-06 07:35 12.68204 101.00293 52 ft 25 kts
2026-05-06 07:35 12.68395 101.00307 52 ft 29 kts
2026-05-06 07:36 12.68563 101.00322 52 ft 0 kts
2026-05-06 07:36 12.68565 101.00322 52 ft 2 kts
2026-05-06 07:36 12.68616 101.00328 52 ft 11 kts
2026-05-06 07:36 12.68706 101.00336 52 ft 15 kts
2026-05-06 07:37 12.68825 101.00346 53 ft 19 kts
2026-05-06 07:37 12.68966 101.00359 53 ft 22 kts
2026-05-06 07:37 12.69129 101.00372 53 ft 20 kts
2026-05-06 07:37 12.69212 101.00379 53 ft 15 kts
2026-05-06 07:38 12.69369 101.00391 53 ft 18 kts
2026-05-06 07:38 12.69477 101.00400 50 ft 12 kts
2026-05-06 07:38 12.69557 101.00416 53 ft 11 kts 37°
2026-05-06 07:38 12.69565 101.00499 52 ft 14 kts 98°
2026-05-06 07:39 12.69550 101.00590 52 ft 8 kts 114°
2026-05-06 07:39 12.69496 101.00620 52 ft 11 kts 167°
2026-05-06 07:39 12.69411 101.00615 52 ft 14 kts 185°
2026-05-06 07:39 12.69294 101.00606 52 ft 27 kts 184°
2026-05-06 07:40 12.68812 101.00566 52 ft 112 kts 185°
2026-05-06 07:40 12.67791 101.00484 224 ft 170 kts 184°
2026-05-06 07:40 12.66590 101.00401 1104 ft 177 kts 182°
2026-05-06 07:40 12.65289 101.00317 1862 ft 200 kts 182°
2026-05-06 07:41 12.63848 101.00218 2485 ft 216 kts 183°
2026-05-06 07:41 12.62284 101.00098 3071 ft 239 kts 182°
2026-05-06 07:41 12.60541 100.99935 3694 ft 260 kts 187°
2026-05-06 07:41 12.58870 100.99159 4664 ft 268 kts 213°
2026-05-06 07:42 12.57166 100.98350 5572 ft 272 kts 188°
2026-05-06 07:42 12.55308 100.98519 6570 ft 272 kts 160°
2026-05-06 07:42 12.53604 100.99327 7530 ft 275 kts 149°
2026-05-06 07:42 12.52510 100.99996 8189 ft 278 kts 147°
2026-05-06 07:43 12.50283 101.01403 9594 ft 285 kts 149°
2026-05-06 07:43 12.48534 101.02412 10462 ft 295 kts 152°
2026-05-06 07:43 12.46608 101.03371 10929 ft 320 kts 156°
2026-05-06 07:43 12.44458 101.04221 11438 ft 339 kts 161°
2026-05-06 07:44 12.42230 101.05011 12183 ft 347 kts 159°
2026-05-06 07:44 12.40016 101.06055 12987 ft 355 kts 152°
2026-05-06 07:44 12.37827 101.07280 13794 ft 361 kts 152°
2026-05-06 07:44 12.35544 101.08387 14513 ft 366 kts 157°
2026-05-06 07:45 12.33945 101.09064 15021 ft 369 kts 158°
2026-05-06 07:45 12.31525 101.09995 15776 ft 374 kts 160°
2026-05-06 07:45 12.28228 101.11108 16756 ft 380 kts 162°
2026-05-06 07:45 12.25676 101.11890 17494 ft 384 kts 163°
2026-05-06 07:46 12.23095 101.12647 18209 ft 389 kts 164°
2026-05-06 07:46 12.21329 101.13158 18621 ft 392 kts 164°
2026-05-06 07:46 12.17824 101.14170 19447 ft 398 kts 164°
2026-05-06 07:46 12.16053 101.14684 19879 ft 401 kts 164°
2026-05-06 07:47 12.12446 101.15737 20734 ft 407 kts 164°
2026-05-06 07:47 12.10641 101.16267 21156 ft 409 kts 163°
2026-05-06 07:47 12.06950 101.17356 22050 ft 415 kts 163°
2026-05-06 07:47 12.04162 101.18185 22692 ft 420 kts 163°
2026-05-06 07:48 12.02304 101.18735 23112 ft 422 kts 163°
2026-05-06 07:48 11.99455 101.19575 23684 ft 427 kts 163°
2026-05-06 07:48 11.96582 101.20422 24205 ft 431 kts 163°
2026-05-06 07:48 11.93682 101.21277 24758 ft 435 kts 163°
2026-05-06 07:49 11.90759 101.22138 25341 ft 439 kts 163°
2026-05-06 07:49 11.87813 101.23007 25945 ft 443 kts 164°
2026-05-06 07:49 11.84838 101.23884 26566 ft 446 kts 164°
2026-05-06 07:49 11.81828 101.24772 27175 ft 451 kts 164°
2026-05-06 07:50 11.78840 101.25653 27777 ft 455 kts 164°
2026-05-06 07:50 11.75788 101.26552 28388 ft 458 kts 164°
2026-05-06 07:50 11.72705 101.27461 28987 ft 462 kts 164°
2026-05-06 07:50 11.69605 101.28374 29563 ft 467 kts 164°
2026-05-06 07:51 11.66455 101.29302 30096 ft 471 kts 164°
2026-05-06 07:51 11.63292 101.30233 30587 ft 474 kts 164°
2026-05-06 07:51 11.60155 101.31157 31077 ft 477 kts 164°
2026-05-06 07:51 11.56945 101.32102 31554 ft 480 kts 164°
2026-05-06 07:52 11.53718 101.33051 32026 ft 483 kts 163°
2026-05-06 07:52 11.50463 101.34009 32485 ft 487 kts 163°
2026-05-06 07:52 11.47202 101.34968 32931 ft 490 kts 163°
2026-05-06 07:52 11.43908 101.35937 33405 ft 492 kts 163°
2026-05-06 07:53 11.40654 101.36894 33871 ft 493 kts 163°
2026-05-06 07:53 11.37361 101.37862 34288 ft 494 kts 163°
2026-05-06 07:53 11.34057 101.38833 34709 ft 494 kts 163°
2026-05-06 07:53 11.30737 101.39808 35088 ft 495 kts 163°
2026-05-06 07:54 11.27429 101.40780 35581 ft 494 kts 163°
2026-05-06 07:54 11.24133 101.41748 36082 ft 492 kts 163°
2026-05-06 07:54 11.20844 101.42714 36546 ft 491 kts 163°
2026-05-06 07:54 11.17568 101.43676 37014 ft 490 kts 163°
2026-05-06 07:55 11.13237 101.44947 37632 ft 488 kts 163°
2026-05-06 07:55 11.11027 101.45595 37947 ft 487 kts 163°
2026-05-06 07:55 11.07781 101.46547 38426 ft 486 kts 164°
2026-05-06 07:55 11.04527 101.47502 38804 ft 485 kts 163°
2026-05-06 07:56 11.01329 101.48439 39123 ft 485 kts 163°
2026-05-06 07:56 10.98086 101.49390 39458 ft 485 kts 163°
2026-05-06 07:56 10.94835 101.50342 39782 ft 485 kts 163°
2026-05-06 07:56 10.91579 101.51296 40081 ft 485 kts 163°
2026-05-06 07:57 10.88334 101.52247 40380 ft 485 kts 163°
2026-05-06 07:57 10.85079 101.53200 40690 ft 485 kts 163°
2026-05-06 07:57 10.81883 101.54136 40822 ft 486 kts 163°
2026-05-06 07:57 10.78634 101.55087 40836 ft 484 kts 163°
2026-05-06 07:58 10.72149 101.56984 40835 ft 484 kts 163°
2026-05-06 07:58 10.65672 101.58879 40830 ft 484 kts 163°
2026-05-06 07:59 10.59192 101.60774 40831 ft 484 kts 163°
2026-05-06 07:59 10.52762 101.62660 40836 ft 484 kts 163°
2026-05-06 08:00 10.46281 101.64546 40834 ft 483 kts 163°
2026-05-06 08:00 10.39839 101.66421 40834 ft 483 kts 163°
2026-05-06 08:01 10.33380 101.68302 40829 ft 482 kts 164°
2026-05-06 08:01 10.26927 101.70182 40831 ft 482 kts 164°
2026-05-06 08:02 10.20478 101.72060 40832 ft 482 kts 163°
2026-05-06 08:02 10.14014 101.73941 40831 ft 483 kts 163°
2026-05-06 08:03 10.07576 101.75815 40830 ft 484 kts 163°
2026-05-06 08:03 10.01094 101.77699 40832 ft 485 kts 163°
2026-05-06 08:04 9.94581 101.79593 40835 ft 486 kts 163°
2026-05-06 08:04 9.88054 101.81490 40832 ft 487 kts 163°
2026-05-06 08:05 9.81577 101.83371 40832 ft 488 kts 163°
2026-05-06 08:05 9.75042 101.85268 40833 ft 487 kts 163°
2026-05-06 08:06 9.68557 101.87150 40832 ft 487 kts 163°
2026-05-06 08:06 9.62025 101.89046 40835 ft 486 kts 163°
2026-05-06 08:07 9.55547 101.90925 40835 ft 486 kts 163°
2026-05-06 08:07 9.49048 101.92808 40836 ft 485 kts 163°
2026-05-06 08:08 9.42541 101.94693 40835 ft 484 kts 163°
2026-05-06 08:08 9.36103 101.96558 40835 ft 484 kts 163°
2026-05-06 08:09 9.29611 101.98438 40835 ft 484 kts 163°
2026-05-06 08:09 9.23185 102.00515 40832 ft 483 kts 159°
2026-05-06 08:10 9.16897 102.02820 40833 ft 483 kts 159°
2026-05-06 08:10 9.10558 102.05130 40833 ft 483 kts 159°
2026-05-06 08:11 9.04253 102.07372 40834 ft 483 kts 159°
2026-05-06 08:11 8.97899 102.09610 40834 ft 483 kts 160°
2026-05-06 08:12 8.91534 102.11848 40831 ft 483 kts 160°
2026-05-06 08:12 8.85222 102.14070 40832 ft 483 kts 160°
2026-05-06 08:13 8.78848 102.16314 40830 ft 484 kts 160°
2026-05-06 08:13 8.72484 102.18556 40830 ft 484 kts 160°
2026-05-06 08:14 8.66140 102.20787 40829 ft 485 kts 160°
2026-05-06 08:14 8.59768 102.23028 40827 ft 485 kts 160°
2026-05-06 08:15 8.54468 102.24890 40827 ft 485 kts 160°
2026-05-06 08:15 8.47046 102.27498 40827 ft 485 kts 160°
2026-05-06 08:16 8.40668 102.29739 40825 ft 485 kts 160°
2026-05-06 08:16 8.34294 102.31978 40826 ft 485 kts 160°
2026-05-06 08:17 8.27905 102.34221 40825 ft 485 kts 160°
2026-05-06 08:17 8.21508 102.36465 40827 ft 486 kts 160°
2026-05-06 08:18 8.15162 102.38692 40826 ft 486 kts 160°
2026-05-06 08:18 8.08768 102.40934 40827 ft 486 kts 160°
2026-05-06 08:19 8.02365 102.43178 40825 ft 487 kts 160°
2026-05-06 08:19 7.95946 102.45427 40826 ft 487 kts 160°
2026-05-06 08:20 7.89576 102.47659 40828 ft 487 kts 160°
2026-05-06 08:20 7.83171 102.49902 40829 ft 487 kts 160°
2026-05-06 08:21 7.76753 102.52150 40824 ft 487 kts 160°
2026-05-06 08:21 7.70338 102.54395 40823 ft 487 kts 160°
2026-05-06 08:22 7.63933 102.56636 40824 ft 487 kts 160°
2026-05-06 08:22 7.57528 102.58876 40822 ft 486 kts 160°
2026-05-06 08:23 7.51127 102.61114 40821 ft 486 kts 160°
2026-05-06 08:23 7.44774 102.63333 40826 ft 486 kts 160°
2026-05-06 08:24 7.38355 102.65577 40825 ft 486 kts 160°
2026-05-06 08:24 7.31970 102.67808 40822 ft 486 kts 160°
2026-05-06 08:25 7.25566 102.70044 40823 ft 486 kts 160°
2026-05-06 08:25 7.19213 102.72262 40823 ft 486 kts 160°
2026-05-06 08:26 7.12809 102.74497 40822 ft 487 kts 160°
2026-05-06 08:26 7.06403 102.76733 40820 ft 487 kts 160°
2026-05-06 08:27 6.99978 102.78975 40816 ft 487 kts 160°
2026-05-06 08:27 6.93569 102.81209 40815 ft 487 kts 160°
2026-05-06 08:28 6.87273 102.83748 40817 ft 486 kts 150°
2026-05-06 08:28 6.81635 102.87402 40813 ft 485 kts 144°
2026-05-06 08:29 6.77041 102.90645 40813 ft 485 kts 143°
2026-05-06 08:29 6.71532 102.94578 40812 ft 485 kts 143°
2026-05-06 08:30 6.65997 102.98507 40813 ft 485 kts 143°
2026-05-06 08:30 6.59566 103.03050 40812 ft 485 kts 143°
2026-05-06 08:31 6.54978 103.06295 40810 ft 485 kts 144°
2026-05-06 08:31 6.49445 103.10198 40810 ft 485 kts 144°
2026-05-06 08:32 6.42975 103.14676 40811 ft 485 kts 146°
2026-05-06 08:32 6.37253 103.18284 40805 ft 485 kts 147°
2026-05-06 08:33 6.32501 103.21292 40807 ft 484 kts 147°
2026-05-06 08:33 6.25876 103.25512 40807 ft 484 kts 146°
2026-05-06 08:34 6.18308 103.30343 40809 ft 483 kts 146°
2026-05-06 08:35 6.12629 103.33970 40813 ft 483 kts 146°
2026-05-06 08:35 6.06959 103.37589 40808 ft 483 kts 146°
2026-05-06 08:36 6.01275 103.41218 40805 ft 483 kts 146°
2026-05-06 08:36 5.95601 103.44839 40808 ft 482 kts 146°
2026-05-06 08:37 5.89933 103.48455 40809 ft 482 kts 146°
2026-05-06 08:37 5.84306 103.52044 40804 ft 482 kts 146°
2026-05-06 08:38 5.78639 103.55658 40804 ft 482 kts 146°
2026-05-06 08:38 5.72963 103.59277 40803 ft 482 kts 146°
2026-05-06 08:39 5.67299 103.62887 40804 ft 482 kts 146°
2026-05-06 08:39 5.61665 103.66478 40806 ft 482 kts 146°
2026-05-06 08:40 5.55993 103.70091 40805 ft 482 kts 146°
2026-05-06 08:40 5.52203 103.72505 40803 ft 482 kts 146°
2026-05-06 08:41 5.39331 103.80702 40806 ft 482 kts 146°
2026-05-06 08:42 5.32736 103.84899 40804 ft 483 kts 146°
2026-05-06 08:42 5.27059 103.88513 40804 ft 483 kts 146°
2026-05-06 08:43 5.21382 103.92124 40806 ft 483 kts 146°
2026-05-06 08:43 5.15697 103.95740 40801 ft 483 kts 146°
2026-05-06 08:44 5.10013 103.99355 40803 ft 483 kts 146°
2026-05-06 08:44 5.04365 104.02946 40803 ft 483 kts 146°
2026-05-06 08:45 4.98673 104.06565 40807 ft 483 kts 146°
2026-05-06 08:45 4.96791 104.07761 40808 ft 484 kts 146°
2026-05-06 08:46 4.92054 104.10771 40804 ft 484 kts 146°
2026-05-06 08:46 4.82554 104.16807 40805 ft 484 kts 146°
2026-05-06 08:47 4.75921 104.21020 40803 ft 484 kts 147°
2026-05-06 08:47 4.70267 104.24611 40807 ft 484 kts 147°
2026-05-06 08:48 4.64559 104.28235 40807 ft 484 kts 147°
2026-05-06 08:48 4.58864 104.31850 40805 ft 484 kts 147°
2026-05-06 08:49 4.54134 104.34852 40804 ft 484 kts 147°
2026-05-06 08:49 4.48456 104.38455 40806 ft 484 kts 147°
2026-05-06 08:50 4.42758 104.42070 40806 ft 484 kts 146°
2026-05-06 08:50 4.37057 104.45686 40805 ft 485 kts 146°
2026-05-06 08:51 4.31355 104.49303 40803 ft 485 kts 146°
2026-05-06 08:51 4.25649 104.52918 40800 ft 485 kts 146°
2026-05-06 08:52 4.19531 104.55689 40800 ft 487 kts 164°
2026-05-06 08:52 4.12778 104.56609 40804 ft 489 kts 173°
2026-05-06 08:53 4.06023 104.56947 40805 ft 491 kts 182°
2026-05-06 08:53 3.99319 104.55570 40805 ft 493 kts 195°
2026-05-06 08:54 3.92785 104.53588 40804 ft 493 kts 196°
2026-05-06 08:54 3.86209 104.51590 40801 ft 493 kts 196°
2026-05-06 08:55 3.79641 104.49596 40803 ft 493 kts 196°
2026-05-06 08:55 3.73082 104.47606 40800 ft 493 kts 196°
2026-05-06 08:56 3.66525 104.45616 40804 ft 493 kts 196°
2026-05-06 08:56 3.59959 104.43624 40635 ft 492 kts 196°
2026-05-06 08:56 3.56690 104.42633 40392 ft 492 kts 196°
2026-05-06 08:57 3.53405 104.41637 40145 ft 493 kts 196°
2026-05-06 08:57 3.50116 104.40639 39904 ft 494 kts 195°
2026-05-06 08:57 3.46827 104.39642 39652 ft 494 kts 195°
2026-05-06 08:57 3.43545 104.38647 39295 ft 493 kts 195°
2026-05-06 08:58 3.40253 104.37648 38658 ft 493 kts 195°
2026-05-06 08:58 3.36969 104.36653 37848 ft 495 kts 195°
2026-05-06 08:58 3.33719 104.35669 37075 ft 495 kts 195°
2026-05-06 08:58 3.30412 104.34667 36294 ft 496 kts 196°
2026-05-06 08:59 3.27109 104.33666 35473 ft 497 kts 196°
2026-05-06 08:59 3.23779 104.32658 34620 ft 499 kts 196°
2026-05-06 08:59 3.20437 104.31645 33659 ft 503 kts 196°
2026-05-06 08:59 3.17068 104.30623 32549 ft 506 kts 196°
2026-05-06 09:00 3.13733 104.29611 31492 ft 509 kts 196°
2026-05-06 09:00 3.10341 104.28582 30393 ft 512 kts 195°
2026-05-06 09:00 3.06913 104.27543 29399 ft 512 kts 195°
2026-05-06 09:00 3.03516 104.26514 28602 ft 506 kts 195°
2026-05-06 09:01 3.00169 104.25500 27817 ft 500 kts 195°
2026-05-06 09:01 2.96840 104.24492 27022 ft 495 kts 195°
2026-05-06 09:01 2.93556 104.23497 26255 ft 490 kts 195°
2026-05-06 09:01 2.90333 104.22521 25492 ft 486 kts 195°
2026-05-06 09:02 2.87099 104.21542 24724 ft 482 kts 195°
2026-05-06 09:02 2.83895 104.20571 23957 ft 478 kts 195°
2026-05-06 09:02 2.80726 104.19612 23153 ft 474 kts 195°
2026-05-06 09:02 2.77617 104.18671 22328 ft 470 kts 195°
2026-05-06 09:03 2.74498 104.17727 21543 ft 463 kts 195°
2026-05-06 09:03 2.71428 104.16797 20851 ft 456 kts 195°
2026-05-06 09:03 2.68455 104.15896 20694 ft 436 kts 195°
2026-05-06 09:03 2.65624 104.15037 20596 ft 416 kts 195°
2026-05-06 09:04 2.62935 104.14222 20483 ft 398 kts 195°
2026-05-06 09:04 2.60326 104.13432 20338 ft 383 kts 195°
2026-05-06 09:04 2.57818 104.12673 20162 ft 370 kts 195°
2026-05-06 09:04 2.55394 104.11940 19993 ft 358 kts 195°
2026-05-06 09:05 2.53039 104.11227 19664 ft 352 kts 195°
2026-05-06 09:05 2.50659 104.10604 19163 ft 351 kts 187°
2026-05-06 09:05 2.48261 104.10453 18707 ft 348 kts 178°
2026-05-06 09:05 2.45842 104.10466 18259 ft 347 kts 178°
2026-05-06 09:06 2.43430 104.10481 17802 ft 345 kts 178°
2026-05-06 09:06 2.41023 104.10490 17321 ft 342 kts 178°
2026-05-06 09:06 2.38645 104.10495 16870 ft 339 kts 178°
2026-05-06 09:06 2.36346 104.10497 16472 ft 326 kts 178°
2026-05-06 09:07 2.34079 104.10498 16089 ft 325 kts 178°
2026-05-06 09:07 2.31817 104.10499 15687 ft 324 kts 178°
2026-05-06 09:07 2.29572 104.10499 15292 ft 323 kts 178°
2026-05-06 09:07 2.27332 104.10499 14892 ft 321 kts 178°
2026-05-06 09:08 2.25134 104.10500 14500 ft 319 kts 178°
2026-05-06 09:08 2.22919 104.10500 14124 ft 317 kts 178°
2026-05-06 09:08 2.20722 104.10500 13744 ft 315 kts 178°
2026-05-06 09:08 2.18532 104.10500 13322 ft 313 kts 178°
2026-05-06 09:09 2.16362 104.10500 12914 ft 310 kts 179°
2026-05-06 09:09 2.14213 104.10500 12570 ft 307 kts 179°
2026-05-06 09:09 2.12098 104.10500 12328 ft 301 kts 179°
2026-05-06 09:09 2.10013 104.10500 11995 ft 299 kts 179°
2026-05-06 09:10 2.07930 104.10501 11624 ft 298 kts 179°
2026-05-06 09:10 2.05861 104.10501 11247 ft 297 kts 179°
2026-05-06 09:10 2.03830 104.10501 10991 ft 291 kts 179°
2026-05-06 09:10 2.01835 104.10500 10874 ft 279 kts 179°
2026-05-06 09:11 1.99929 104.10499 10772 ft 267 kts 179°
2026-05-06 09:11 1.98095 104.10499 10537 ft 263 kts 179°
2026-05-06 09:11 1.96259 104.10503 10208 ft 263 kts 178°
2026-05-06 09:11 1.94430 104.10515 9915 ft 261 kts 178°
2026-05-06 09:12 1.92616 104.10526 9615 ft 261 kts 179°
2026-05-06 09:12 1.90804 104.10536 9316 ft 260 kts 179°
2026-05-06 09:12 1.88989 104.10545 9034 ft 259 kts 179°
2026-05-06 09:12 1.87190 104.10553 8744 ft 258 kts 179°
2026-05-06 09:13 1.85397 104.10561 8460 ft 257 kts 179°
2026-05-06 09:13 1.83641 104.10569 8183 ft 255 kts 179°
2026-05-06 09:13 1.81864 104.10578 7903 ft 254 kts 179°
2026-05-06 09:13 1.80092 104.10586 7621 ft 253 kts 179°
2026-05-06 09:14 1.78329 104.10593 7349 ft 252 kts 179°
2026-05-06 09:14 1.76572 104.10601 7067 ft 251 kts 179°
2026-05-06 09:14 1.74849 104.10609 6792 ft 250 kts 179°
2026-05-06 09:14 1.73106 104.10617 6517 ft 249 kts 179°
2026-05-06 09:15 1.71377 104.10625 6232 ft 248 kts 180°
2026-05-06 09:15 1.69656 104.10632 5959 ft 247 kts 180°
2026-05-06 09:15 1.67941 104.10640 5715 ft 244 kts 180°
2026-05-06 09:15 1.66280 104.10640 5632 ft 231 kts 181°
2026-05-06 09:16 1.64716 104.10408 5267 ft 233 kts 196°
2026-05-06 09:16 1.63151 104.09836 4691 ft 245 kts 203°
2026-05-06 09:16 1.61548 104.09149 4085 ft 255 kts 204°
2026-05-06 09:16 1.59892 104.08422 3655 ft 265 kts 204°
2026-05-06 09:17 1.58186 104.07670 3502 ft 268 kts 204°
2026-05-06 09:17 1.56530 104.06928 3501 ft 250 kts 204°
2026-05-06 09:17 1.54990 104.06263 3489 ft 234 kts 203°
2026-05-06 09:17 1.53534 104.05651 3293 ft 227 kts 203°
2026-05-06 09:18 1.52091 104.05036 3006 ft 225 kts 203°
2026-05-06 09:18 1.50656 104.04425 2695 ft 225 kts 202°
2026-05-06 09:18 1.49213 104.03813 2403 ft 223 kts 202°
2026-05-06 09:18 1.47815 104.03219 2113 ft 214 kts 202°
2026-05-06 09:19 1.46497 104.02660 1875 ft 197 kts 202°
2026-05-06 09:19 1.45294 104.02149 1648 ft 187 kts 202°
2026-05-06 09:19 1.44096 104.01639 1383 ft 186 kts 202°
2026-05-06 09:19 1.42912 104.01138 1129 ft 182 kts 202°
2026-05-06 09:20 1.41776 104.00656 907 ft 174 kts 203°
2026-05-06 09:20 1.40707 104.00203 700 ft 158 kts 203°
2026-05-06 09:20 1.39738 103.99792 505 ft 145 kts 204°
2026-05-06 09:20 1.38837 103.99417 312 ft 136 kts 202°
2026-05-06 09:21 1.37991 103.99074 156 ft 128 kts 205°
2026-05-06 09:21 1.37183 103.98721 56 ft 128 kts 204°
2026-05-06 09:21 1.36395 103.98379 37 ft 108 kts 204°
2026-05-06 09:21 1.35955 103.98193 37 ft 39 kts 202°
2026-05-06 09:22 1.35697 103.98112 37 ft 39 kts 184°
2026-05-06 09:22 1.35450 103.98131 37 ft 30 kts 174°
2026-05-06 09:22 1.35307 103.98112 37 ft 19 kts 201°
2026-05-06 09:22 1.35170 103.98054 37 ft 23 kts 204°
2026-05-06 09:23 1.35033 103.97996 37 ft 19 kts 202°
2026-05-06 09:23 1.34934 103.97955 37 ft 16 kts 202°
2026-05-06 09:23 1.34818 103.97907 37 ft 18 kts 203°
2026-05-06 09:23 1.34758 103.97903 37 ft 8 kts 154°
2026-05-06 09:24 1.34716 103.97960 37 ft 13 kts 114°
2026-05-06 09:24 1.34674 103.98056 37 ft 17 kts 114°
2026-05-06 09:24 1.34622 103.98180 36 ft 21 kts 112°
2026-05-06 09:24 1.34573 103.98300 53 ft 17 kts 112°
2026-05-06 09:25 1.34520 103.98421 51 ft 21 kts 114°
2026-05-06 09:25 1.34466 103.98544 37 ft 21 kts 113°
2026-05-06 09:25 1.34406 103.98686 37 ft 23 kts 113°
2026-05-06 09:25 1.34352 103.98810 37 ft 11 kts 113°
2026-05-06 09:26 1.34333 103.98885 37 ft 13 kts 82°
2026-05-06 09:26 1.34401 103.98944 37 ft 14 kts 24°
2026-05-06 09:26 1.34506 103.98989 37 ft 19 kts 22°
2026-05-06 09:26 1.34639 103.99044 37 ft 23 kts 23°
2026-05-06 09:27 1.34750 103.99091 37 ft 16 kts 23°
2026-05-06 09:27 1.34867 103.99141 37 ft 20 kts 22°
2026-05-06 09:27 1.35002 103.99198 37 ft 22 kts 22°
2026-05-06 09:27 1.35144 103.99257 37 ft 21 kts 23°
2026-05-06 09:28 1.35292 103.99319 37 ft 25 kts 22°
2026-05-06 09:28 1.35444 103.99383 37 ft 15 kts 23°
2026-05-06 09:28 1.35549 103.99427 37 ft 19 kts 22°
2026-05-06 09:28 1.35683 103.99483 37 ft 23 kts 22°
2026-05-06 09:29 1.35816 103.99540 37 ft 20 kts 23°
2026-05-06 09:29 1.35948 103.99595 37 ft 22 kts 22°
2026-05-06 09:29 1.36088 103.99655 37 ft 20 kts 23°
2026-05-06 09:29 1.36190 103.99698 37 ft 16 kts 22°
2026-05-06 09:30 1.36278 103.99735 37 ft 10 kts 23°
2026-05-06 09:30 1.36354 103.99767 37 ft 10 kts 22°
2026-05-06 09:30 1.36416 103.99758 37 ft 10 kts 322°
2026-05-06 09:30 1.36456 103.99688 37 ft 10 kts 296°
2026-05-06 09:31 1.36448 103.99618 36 ft 11 kts 227°
2026-05-06 09:31 1.36378 103.99566 37 ft 14 kts 227°
2026-05-06 09:31 1.36365 103.99515 37 ft 8 kts 281°
2026-05-06 09:31 1.36389 103.99478 37 ft 1 kts 320°
2026-05-06 09:32 1.36397 103.99472 37 ft 3 kts 320°
2026-05-06 09:32 1.36400 103.99470 37 ft 0 kts 319°